Dewpoint
63 63 63 63 62 62 62 62 61 61 61 61 61 61 61 61 61 60 60 62 62 61 61 61 62 62 63 63 62 63 63 63 63 63 63 63 62 62 62 62 61 61
62 62 62 62 62 61 61 61 61 61 61 60 60 61 61 61 61 61 61 59 60 61 61 60 61 61 62 61 61 62 62 63 63 64 63 62 62 63 62 61 61 61
62 62 62 62 62 61 61 60 61 61 59 59 60 60 60 60 59 58 58 58 58 59 60 60 60 60 61 60 61 61 62 62 62 63 63 63 62 62 62 62 61 61
62 62 62 61 61 61 60 60 61 61 60 60 59 59 60 60 58 57 60 60 58 59 60 60 59 60 60 60 61 61 61 61 61 61 61 62 62 62 62 61 61 61
63 62 62 61 61 60 60 60 60 60 59 60 59 59 59 58 58 59 58 57 57 58 58 58 59 60 59 59 60 60 59 59 61 62 61 61 61 62 62 62 61 60
62 61 61 61 60 60 60 60 60 59 59 59 58 59 59 58 58 58 57 57 57 58 58 58 58 58 59 59 58 59 59 58 60 61 61 61 61 61 63 62 61 60
62 61 61 61 60 60 60 59 60 60 59 58 58 58 58 57 57 57 56 55 55 57 57 57 58 58 58 58 58 58 59 58 59 59 60 60 61 61 62 61 61 60
62 61 61 60 60 60 59 59 59 59 58 58 58 57 57 57 56 57 56 55 55 55 57 58 57 56 57 58 58 57 57 58 57 57 58 59 60 59 60 60 60 60
61 60 60 60 59 59 59 59 59 58 59 58 57 57 58 58 57 57 57 54 54 55 56 56 56 55 56 57 55 54 56 57 58 58 58 59 58 59 59 60 59 59
61 61 60 60 58 58 58 58 58 58 58 57 57 57 58 58 57 57 57 54 54 54 55 56 56 56 56 54 55 56 55 56 57 57 58 59 58 58 59 59 59 59
60 60 60 59 58 58 59 59 57 57 58 57 57 57 58 57 56 57 56 54 54 54 54 55 54 55 54 54 56 55 55 55 56 57 58 59 59 59 61 59 59 59
59 60 59 59 58 57 58 57 57 57 57 57 56 56 56 56 56 56 54 52 52 52 53 54 53 54 54 52 52 55 55 56 56 57 57 57 58 59 59 58 58 58
59 60 59 60 59 57 57 57 57 56 56 55 55 55 56 54 56 55 52 50 52 52 53 53 53 53 53 52 54 54 54 55 55 56 56 56 57 57 58 58 58 58
58 59 59 60 58 57 56 55 55 54 54 55 55 54 55 55 56 52 50 51 52 52 51 50 49 48 49 51 54 54 54 54 55 55 55 56 56 57 57 57 57 57
59 58 58 58 58 57 55 55 55 54 54 54 53 54 57 56 54 52 52 53 52 51 50 49 48 47 47 47 52 54 55 53 54 53 54 54 55 56 56 55 53 53
59 58 59 58 58 56 54 54 55 54 54 52 53 56 55 53 52 53 52 52 50 50 49 49 48 47 45 43 45 53 54 55 55 51 52 53 51 53 52 51 50 51
58 58 59 58 58 56 56 56 53 53 52 54 56 56 56 55 55 54 53 52 51 49 48 48 47 45 42 40 41 46 53 53 53 55 54 51 50 52 52 50 49 49
58 57 57 57 57 56 54 53 54 54 55 56 56 57 56 55 54 53 52 52 51 50 49 48 45 42 39 40 41 42 47 53 54 54 54 55 53 53 53 53 54 55
57 56 56 56 56 57 56 55 56 56 56 56 56 57 56 54 53 52 52 51 50 48 48 47 46 40 39 40 41 41 43 52 54 55 54 54 54 54 54 54 54 55
56 55 54 55 55 56 57 57 57 56 56 57 57 57 56 54 53 52 51 50 49 48 47 45 44 41 39 40 40 41 44 51 57 56 55 56 55 55 55 55 55 54
55 54 55 55 55 55 55 55 56 56 56 56 56 56 55 54 52 51 51 50 49 48 46 44 41 38 39 39 40 41 43 52 57 56 56 57 57 56 56 56 56 56
55 54 54 54 54 54 55 55 55 55 55 55 55 55 55 54 53 51 49 48 47 45 43 42 41 38 38 39 39 40 48 56 57 56 55 55 55 56 56 57 57 57
55 55 55 54 54 55 55 55 55 55 55 55 54 53 52 51 50 49 47 45 44 43 42 41 40 39 38 39 39 40 51 56 56 55 55 55 54 52 52 52 54 56
53 53 53 53 53 54 54 53 54 54 54 54 53 52 51 50 48 47 46 44 42 41 41 39 39 39 38 39 41 43 48 54 55 55 55 54 51 50 48 45 46 49
52 52 52 52 52 52 52 52 53 53 53 53 53 52 51 51 50 48 47 46 44 43 45 39 37 38 38 39 40 41 45 48 50 51 54 53 51 49 46 42 41 42
52 51 51 51 51 51 51 51 52 52 52 52 51 51 49 48 47 46 45 46 46 45 43 40 36 36 37 37 39 39 40 45 47 48 49 52 51 49 48 44 41 40